Terminal Aerodrome Forecast
Issued by NWS

Home | Current Version | Previous Version | Text Only | Print | Product List | Glossary On
Versions: 1 2 3 4 5 6 7 8 9 10 11 12 13 14 15
000
FTUS44 KMAF 181700
TAFPEQ
TAF
KPEQ 181720Z 1818/1918 23009KT P6SM BKN200
     FM191100 32003KT 1SM -DZ BR OVC004=

USA.gov is the U.S. government's official web portal to all federal, state and local government web resources and services.